START_TIME,STEP,MOV.,P11,t_acc.,P23,t_acc.,P27,t_acc.,A4,t_acc.
1979-07-20 03:00:22.900 ,1,0,1.,4.8,0.,4.8,0.,4.8,0.,4.8
1979-07-20 03:00:27.700 ,1,0,0.,4.8,0.,4.8,0.,4.8,0.,4.8
1979-07-20 03:00:32.500 ,1,0,0.,4.8,0.,4.8,0.,4.8,0.,4.8
1979-07-20 03:00:37.300 ,1,0,0.,4.8,0.,4.8,1.,4.8,0.,4.8
1979-07-20 03:00:42.100 ,1,0,0.,4.8,0.,4.8,0.,4.8,0.,4.8
1979-07-20 03:00:46.900 ,2,0,0.,4.8,0.,4.8,0.,4.8,0.,4.8
1979-07-20 03:00:51.700 ,2,0,0.,4.8,0.,4.8,0.,4.8,0.,4.8
1979-07-20 03:00:56.500 ,2,0,1.,4.8,0.,4.8,0.,4.8,0.,4.8
1979-07-20 03:01:01.300 ,2,0,0.,4.8,0.,4.8,0.,4.8,1.,4.8
1979-07-20 03:01:06.100 ,2,0,0.,4.8,0.,4.8,0.,4.8,0.,4.8
1979-07-20 03:01:10.900 ,2,0,1.,4.8,0.,4.8,1.,4.8,2.,4.8
1979-07-20 03:01:15.700 ,2,0,0.,4.8,0.,4.8,0.,4.8,0.,4.8
1979-07-20 03:01:20.500 ,2,0,1.,4.8,0.,4.8,1.,4.8,0.,4.8
1979-07-20 03:01:25.300 ,2,0,0.,4.8,0.,4.8,1.,4.8,0.,4.8
1979-07-20 03:01:30.100 ,2,0,0.,4.8,0.,4.8,0.,4.8,0.,4.8
1979-07-20 03:01:34.900 ,3,0,0.,4.8,0.,4.8,1.,4.8,0.,4.8
1979-07-20 03:01:39.700 ,3,0,0.,4.8,0.,4.8,0.,4.8,0.,4.8
1979-07-20 03:01:44.500 ,3,0,0.,4.8,0.,4.8,0.,4.8,0.,4.8
1979-07-20 03:01:49.300 ,3,0,1.,4.8,0.,4.8,0.,4.8,0.,4.8
1979-07-20 03:01:54.100 ,3,0,1.,4.8,0.,4.8,0.,4.8,0.,4.8
1979-07-20 03:01:58.900 ,3,0,0.,4.8,0.,4.8,1.,4.8,0.,4.8
1979-07-20 03:02:03.700 ,3,0,0.,4.8,0.,4.8,1.,4.8,0.,4.8
1979-07-20 03:02:08.500 ,3,0,1.,4.8,0.,4.8,0.,4.8,0.,4.8
1979-07-20 03:02:13.300 ,3,0,1.,4.8,0.,4.8,0.,4.8,0.,4.8
1979-07-20 03:02:18.100 ,3,0,0.,4.8,0.,4.8,0.,4.8,0.,4.8
1979-07-20 03:02:22.900 ,4,0,0.,4.8,0.,4.8,0.,4.8,0.,4.8
1979-07-20 03:02:27.700 ,4,0,0.,4.8,0.,4.8,0.,4.8,1.,4.8
1979-07-20 03:02:32.500 ,4,0,0.,4.8,0.,4.8,0.,4.8,0.,4.8
1979-07-20 03:02:37.300 ,4,0,0.,4.8,0.,4.8,2.,4.8,0.,4.8
1979-07-20 03:02:42.100 ,4,0,0.,4.8,0.,4.8,0.,4.8,0.,4.8
1979-07-20 03:02:46.900 ,4,0,0.,4.8,0.,4.8,0.,4.8,0.,4.8
1979-07-20 03:02:51.700 ,4,0,0.,4.8,0.,4.8,0.,4.8,0.,4.8
1979-07-20 03:02:56.500 ,4,0,0.,4.8,0.,4.8,0.,4.8,0.,4.8
1979-07-20 03:03:01.300 ,4,0,0.,4.8,0.,4.8,0.,4.8,0.,4.8
1979-07-20 03:03:06.100 ,4,0,1.,4.8,0.,4.8,0.,4.8,0.,4.8
1979-07-20 03:03:10.900 ,5,0,0.,4.8,0.,4.8,0.,4.8,0.,4.8
1979-07-20 03:03:15.700 ,5,0,0.,4.8,0.,4.8,0.,4.8,0.,4.8
1979-07-20 03:03:20.500 ,5,0,0.,4.8,0.,4.8,0.,4.8,0.,4.8
1979-07-20 03:03:25.300 ,5,0,0.,4.8,0.,4.8,1.,4.8,0.,4.8
1979-07-20 03:03:30.100 ,5,0,0.,4.8,0.,4.8,1.,4.8,0.,4.8
1979-07-20 03:03:34.900 ,5,0,0.,4.8,0.,4.8,2.,4.8,0.,4.8
1979-07-20 03:03:39.700 ,5,0,0.,4.8,0.,4.8,0.,4.8,0.,4.8
1979-07-20 03:03:44.500 ,5,0,1.,4.8,0.,4.8,0.,4.8,0.,4.8
1979-07-20 03:03:49.300 ,5,0,2.,4.8,0.,4.8,0.,4.8,0.,4.8
1979-07-20 03:03:54.100 ,5,0,0.,4.8,2.,4.8,0.,4.8,0.,4.8
1979-07-20 03:03:58.900 ,6,0,0.,4.8,0.,4.8,0.,4.8,1.,4.8
1979-07-20 03:04:03.700 ,6,0,2.,4.8,0.,4.8,0.,4.8,0.,4.8
1979-07-20 03:04:08.500 ,6,0,0.,4.8,0.,4.8,1.,4.8,0.,4.8
1979-07-20 03:04:13.300 ,6,0,0.,4.8,0.,4.8,0.,4.8,0.,4.8
1979-07-20 03:04:18.100 ,6,0,1.,4.8,0.,4.8,0.,4.8,0.,4.8
1979-07-20 03:04:22.900 ,6,0,0.,4.8,0.,4.8,0.,4.8,0.,4.8
1979-07-20 03:04:27.700 ,6,0,2.,4.8,0.,4.8,0.,4.8,0.,4.8
1979-07-20 03:04:32.500 ,6,0,1.,4.8,0.,4.8,0.,4.8,0.,4.8
1979-07-20 03:04:37.300 ,6,0,1.,4.8,0.,4.8,0.,4.8,0.,4.8
1979-07-20 03:04:42.100 ,6,0,1.,4.8,0.,4.8,0.,4.8,0.,4.8
1979-07-20 03:04:46.900 ,7,0,0.,4.8,0.,4.8,2.,4.8,0.,4.8
1979-07-20 03:04:51.700 ,7,0,0.,4.8,0.,4.8,0.,4.8,0.,4.8
1979-07-20 03:04:56.500 ,7,0,0.,4.8,0.,4.8,0.,4.8,0.,4.8
1979-07-20 03:05:01.300 ,7,0,0.,4.8,0.,4.8,0.,4.8,0.,4.8
1979-07-20 03:05:06.100 ,7,0,0.,4.8,0.,4.8,0.,4.8,0.,4.8
1979-07-20 03:05:10.900 ,7,0,0.,4.8,0.,4.8,0.,4.8,0.,4.8
1979-07-20 03:05:15.700 ,7,0,1.,4.8,0.,4.8,0.,4.8,0.,4.8
1979-07-20 03:05:20.500 ,7,0,1.,4.8,0.,4.8,0.,4.8,0.,4.8
1979-07-20 03:05:25.300 ,7,0,0.,4.8,0.,4.8,0.,4.8,0.,4.8
1979-07-20 03:05:30.100 ,7,0,0.,4.8,0.,4.8,0.,4.8,0.,4.8
1979-07-20 03:05:34.900 ,7,0,0.,4.8,0.,4.8,0.,4.8,0.,4.8
1979-07-20 03:05:39.700 ,7,0,0.,4.8,0.,4.8,0.,4.8,0.,4.8
1979-07-20 03:05:44.500 ,7,0,0.,4.8,0.,4.8,0.,4.8,0.,4.8
1979-07-20 03:05:49.300 ,7,0,0.,4.8,0.,4.8,0.,4.8,0.,4.8
1979-07-20 03:05:54.100 ,7,0,0.,4.8,0.,4.8,0.,4.8,0.,4.8
1979-07-20 03:05:58.900 ,7,0,0.,4.8,0.,4.8,1.,4.8,0.,4.8
1979-07-20 03:06:03.700 ,7,0,0.,4.8,0.,4.8,0.,4.8,0.,4.8
1979-07-20 03:06:08.500 ,7,0,0.,4.8,0.,4.8,0.,4.8,0.,4.8
1979-07-20 03:06:13.300 ,7,0,0.,4.8,0.,4.8,0.,4.8,0.,4.8
1979-07-20 03:06:18.100 ,7,0,0.,4.8,0.,4.8,0.,4.8,0.,4.8
1979-07-20 03:06:22.900 ,6,0,0.,4.8,0.,4.8,0.,4.8,0.,4.8
1979-07-20 03:06:27.700 ,6,0,0.,4.8,0.,4.8,0.,4.8,0.,4.8
1979-07-20 03:06:32.500 ,6,0,1.,4.8,0.,4.8,0.,4.8,0.,4.8
1979-07-20 03:06:37.300 ,6,0,0.,4.8,0.,4.8,1.,4.8,0.,4.8
1979-07-20 03:06:42.100 ,6,0,0.,4.8,0.,4.8,0.,4.8,0.,4.8
1979-07-20 03:06:46.900 ,6,0,0.,4.8,0.,4.8,0.,4.8,0.,4.8
1979-07-20 03:06:51.700 ,6,0,0.,4.8,0.,4.8,0.,4.8,0.,4.8
1979-07-20 03:06:56.500 ,6,0,0.,4.8,0.,4.8,0.,4.8,0.,4.8
1979-07-20 03:07:01.300 ,6,0,1.,4.8,0.,4.8,0.,4.8,0.,4.8
1979-07-20 03:07:06.100 ,6,0,0.,4.8,0.,4.8,0.,4.8,0.,4.8
1979-07-20 03:07:10.900 ,5,0,0.,4.8,0.,4.8,0.,4.8,0.,4.8
1979-07-20 03:07:15.700 ,5,0,0.,4.8,0.,4.8,0.,4.8,1.,4.8
1979-07-20 03:07:20.500 ,5,0,0.,4.8,0.,4.8,0.,4.8,0.,4.8
1979-07-20 03:07:25.300 ,5,0,0.,4.8,0.,4.8,0.,4.8,0.,4.8
1979-07-20 03:07:30.100 ,5,0,1.,4.8,0.,4.8,0.,4.8,0.,4.8
1979-07-20 03:07:34.900 ,5,0,0.,4.8,0.,4.8,0.,4.8,0.,4.8
1979-07-20 03:07:39.700 ,5,0,0.,4.8,0.,4.8,0.,4.8,0.,4.8
1979-07-20 03:07:44.500 ,5,0,2.,4.8,0.,4.8,0.,4.8,0.,4.8
1979-07-20 03:07:49.300 ,5,0,0.,4.8,0.,4.8,0.,4.8,0.,4.8
1979-07-20 03:07:54.100 ,5,0,0.,4.8,0.,4.8,0.,4.8,0.,4.8
1979-07-20 03:07:58.900 ,4,0,0.,4.8,0.,4.8,0.,4.8,0.,4.8
1979-07-20 03:08:03.700 ,4,0,0.,4.8,0.,4.8,0.,4.8,0.,4.8
1979-07-20 03:08:08.500 ,4,0,0.,4.8,0.,4.8,0.,4.8,0.,4.8
1979-07-20 03:08:13.300 ,4,0,0.,4.8,0.,4.8,0.,4.8,0.,4.8
1979-07-20 03:08:18.100 ,4,0,1.,4.8,0.,4.8,0.,4.8,0.,4.8
1979-07-20 03:08:22.900 ,4,0,1.,4.8,0.,4.8,0.,4.8,1.,4.8
1979-07-20 03:08:27.700 ,4,0,0.,4.8,0.,4.8,0.,4.8,0.,4.8
1979-07-20 03:08:32.500 ,4,0,0.,4.8,0.,4.8,0.,4.8,0.,4.8
1979-07-20 03:08:37.300 ,4,0,0.,4.8,0.,4.8,0.,4.8,0.,4.8
1979-07-20 03:08:42.100 ,4,0,0.,4.8,0.,4.8,0.,4.8,0.,4.8
1979-07-20 03:08:46.900 ,3,0,0.,4.8,0.,4.8,0.,4.8,0.,4.8
1979-07-20 03:08:51.700 ,3,0,0.,4.8,0.,4.8,0.,4.8,0.,4.8
1979-07-20 03:08:56.500 ,3,0,1.,4.8,0.,4.8,0.,4.8,0.,4.8
1979-07-20 03:09:01.300 ,3,0,1.,4.8,0.,4.8,1.,4.8,0.,4.8
1979-07-20 03:09:06.100 ,3,0,0.,4.8,0.,4.8,0.,4.8,0.,4.8
1979-07-20 03:09:10.900 ,3,0,0.,4.8,0.,4.8,0.,4.8,0.,4.8
1979-07-20 03:09:15.700 ,3,0,1.,4.8,0.,4.8,0.,4.8,0.,4.8
1979-07-20 03:09:20.500 ,3,0,1.,4.8,0.,4.8,0.,4.8,0.,4.8
1979-07-20 03:09:25.300 ,3,0,0.,4.8,0.,4.8,0.,4.8,0.,4.8
1979-07-20 03:09:30.100 ,3,0,2.,4.8,0.,4.8,0.,4.8,0.,4.8
1979-07-20 03:09:34.900 ,2,0,1.,4.8,0.,4.8,0.,4.8,0.,4.8
1979-07-20 03:09:39.700 ,2,0,0.,4.8,0.,4.8,1.,4.8,0.,4.8
1979-07-20 03:09:44.500 ,2,0,0.,4.8,0.,4.8,0.,4.8,0.,4.8
1979-07-20 03:09:49.300 ,2,0,2.,4.8,0.,4.8,0.,4.8,0.,4.8
1979-07-20 03:09:54.100 ,2,0,1.,4.8,0.,4.8,0.,4.8,0.,4.8
1979-07-20 03:09:58.900 ,2,0,0.,4.8,0.,4.8,1.,4.8,0.,4.8
1979-07-20 03:10:03.700 ,2,0,1.,4.8,0.,4.8,0.,4.8,0.,4.8
1979-07-20 03:10:08.500 ,2,0,0.,4.8,1.,4.8,0.,4.8,0.,4.8
1979-07-20 03:10:13.300 ,2,0,0.,4.8,1.,4.8,0.,4.8,0.,4.8
1979-07-20 03:10:18.100 ,2,0,1.,4.8,0.,4.8,0.,4.8,0.,4.8
1979-07-20 03:10:22.900 ,1,0,1.,4.8,0.,4.8,0.,4.8,0.,4.8
1979-07-20 03:10:27.700 ,1,0,0.,4.8,0.,4.8,0.,4.8,0.,4.8
1979-07-20 03:10:32.500 ,1,0,0.,4.8,0.,4.8,0.,4.8,0.,4.8
1979-07-20 03:10:37.300 ,1,0,0.,4.8,0.,4.8,0.,4.8,1.,4.8
1979-07-20 03:10:42.100 ,1,0,0.,4.8,1.,4.8,0.,4.8,0.,4.8
1979-07-20 03:10:46.900 ,1,0,0.,4.8,0.,4.8,0.,4.8,0.,4.8
1979-07-20 03:10:51.700 ,1,0,1.,4.8,0.,4.8,1.,4.8,0.,4.8
1979-07-20 03:10:56.500 ,1,0,0.,4.8,0.,4.8,0.,4.8,0.,4.8
1979-07-20 03:11:01.300 ,1,0,1.,4.8,0.,4.8,1.,4.8,0.,4.8
1979-07-20 03:11:06.100 ,1,0,0.,4.8,0.,4.8,0.,4.8,0.,4.8
1979-07-20 03:11:10.900 ,0,0,0.,4.8,0.,4.8,0.,4.8,0.,4.8
1979-07-20 03:11:15.700 ,0,0,0.,4.8,0.,4.8,0.,4.8,0.,4.8
1979-07-20 03:11:20.500 ,0,0,0.,4.8,0.,4.8,0.,4.8,0.,4.8
1979-07-20 03:11:25.300 ,0,0,1.,4.8,1.,4.8,0.,4.8,0.,4.8
1979-07-20 03:11:30.100 ,0,0,0.,4.8,0.,4.8,0.,4.8,0.,4.8
1979-07-20 03:11:34.900 ,0,0,1.,4.8,0.,4.8,1.,4.8,0.,4.8
1979-07-20 03:11:39.700 ,0,0,0.,4.8,0.,4.8,1.,4.8,0.,4.8
1979-07-20 03:11:44.500 ,0,0,0.,4.8,0.,4.8,0.,4.8,0.,4.8
1979-07-20 03:11:49.300 ,0,0,0.,4.8,0.,4.8,0.,4.8,0.,4.8
1979-07-20 03:11:54.100 ,0,0,1.,4.8,0.,4.8,0.,4.8,0.,4.8
1979-07-20 03:11:58.900 ,0,0,0.,4.8,0.,4.8,1.,4.8,0.,4.8
1979-07-20 03:12:03.700 ,0,0,1.,4.8,0.,4.8,0.,4.8,0.,4.8
1979-07-20 03:12:08.500 ,0,0,0.,4.8,0.,4.8,0.,4.8,0.,4.8
1979-07-20 03:12:13.300 ,0,0,0.,4.8,1.,4.8,0.,4.8,1.,4.8
1979-07-20 03:12:18.100 ,0,0,1.,4.8,0.,4.8,0.,4.8,0.,4.8
1979-07-20 03:12:22.900 ,0,0,1.,4.8,0.,4.8,0.,4.8,0.,4.8
1979-07-20 03:12:27.700 ,0,0,0.,4.8,0.,4.8,0.,4.8,0.,4.8
1979-07-20 03:12:32.500 ,0,0,0.,4.8,0.,4.8,0.,4.8,0.,4.8
1979-07-20 03:12:37.300 ,0,0,1.,4.8,0.,4.8,0.,4.8,0.,4.8
1979-07-20 03:12:42.100 ,0,0,1.,4.8,0.,4.8,0.,4.8,0.,4.8
1979-07-20 03:12:46.900 ,0,0,0.,4.8,0.,4.8,0.,4.8,0.,4.8
1979-07-20 03:12:51.700 ,0,0,1.,4.8,0.,4.8,0.,4.8,0.,4.8
1979-07-20 03:12:56.500 ,0,0,0.,4.8,0.,4.8,0.,4.8,0.,4.8
1979-07-20 03:13:01.300 ,0,0,0.,4.8,0.,4.8,1.,4.8,0.,4.8
1979-07-20 03:13:06.100 ,0,0,1.,4.8,0.,4.8,0.,4.8,0.,4.8
1979-07-20 03:13:10.900 ,0,0,,0,,0,,0,,0
1979-07-20 03:13:15.700 ,0,0,1.,4.8,0.,4.8,0.,4.8,0.,4.8
1979-07-20 03:13:20.500 ,0,0,0.,4.8,0.,4.8,0.,4.8,0.,4.8
1979-07-20 03:13:25.300 ,0,0,0.,4.8,0.,4.8,1.,4.8,0.,4.8
1979-07-20 03:13:30.100 ,0,0,0.,4.8,0.,4.8,0.,4.8,0.,4.8
1979-07-20 03:13:34.900 ,2,0,0.,4.8,0.,4.8,0.,4.8,1.,4.8
1979-07-20 03:13:39.700 ,2,0,0.,4.8,0.,4.8,0.,4.8,0.,4.8
1979-07-20 03:13:44.500 ,2,0,0.,4.8,0.,4.8,1.,4.8,0.,4.8
1979-07-20 03:13:49.300 ,2,0,0.,4.8,0.,4.8,0.,4.8,0.,4.8
1979-07-20 03:13:54.100 ,2,0,2.,4.8,0.,4.8,0.,4.8,0.,4.8
1979-07-20 03:13:58.900 ,2,0,0.,4.8,0.,4.8,0.,4.8,0.,4.8
1979-07-20 03:14:03.700 ,2,0,1.,4.8,0.,4.8,1.,4.8,0.,4.8
1979-07-20 03:14:08.500 ,2,0,0.,4.8,0.,4.8,0.,4.8,0.,4.8
1979-07-20 03:14:13.300 ,2,0,1.,4.8,0.,4.8,0.,4.8,0.,4.8
1979-07-20 03:14:18.100 ,2,0,0.,4.8,0.,4.8,0.,4.8,0.,4.8
1979-07-20 03:14:22.900 ,3,0,0.,4.8,0.,4.8,0.,4.8,0.,4.8
1979-07-20 03:14:27.700 ,3,0,0.,4.8,0.,4.8,0.,4.8,0.,4.8
1979-07-20 03:14:32.500 ,3,0,0.,4.8,0.,4.8,0.,4.8,0.,4.8
1979-07-20 03:14:37.300 ,3,0,1.,4.8,0.,4.8,0.,4.8,0.,4.8
1979-07-20 03:14:42.100 ,3,0,0.,4.8,0.,4.8,0.,4.8,0.,4.8
1979-07-20 03:14:46.900 ,3,0,0.,4.8,0.,4.8,0.,4.8,1.,4.8
1979-07-20 03:14:51.700 ,3,0,0.,4.8,0.,4.8,0.,4.8,0.,4.8
1979-07-20 03:14:56.500 ,3,0,1.,4.8,0.,4.8,0.,4.8,0.,4.8
1979-07-20 03:15:01.300 ,3,0,0.,4.8,0.,4.8,0.,4.8,0.,4.8
1979-07-20 03:15:06.100 ,3,0,1.,4.8,0.,4.8,0.,4.8,0.,4.8
1979-07-20 03:15:10.900 ,4,0,0.,4.8,0.,4.8,1.,4.8,0.,4.8
1979-07-20 03:15:15.700 ,4,0,0.,4.8,1.,4.8,0.,4.8,0.,4.8
1979-07-20 03:15:20.500 ,4,0,0.,4.8,0.,4.8,1.,4.8,0.,4.8
1979-07-20 03:15:25.300 ,4,0,0.,4.8,0.,4.8,1.,4.8,0.,4.8
1979-07-20 03:15:30.100 ,4,0,0.,4.8,0.,4.8,0.,4.8,0.,4.8
1979-07-20 03:15:34.900 ,4,0,0.,4.8,0.,4.8,0.,4.8,0.,4.8
1979-07-20 03:15:39.700 ,4,0,0.,4.8,0.,4.8,0.,4.8,0.,4.8
1979-07-20 03:15:44.500 ,4,0,1.,4.8,0.,4.8,1.,4.8,0.,4.8
1979-07-20 03:15:49.300 ,4,0,0.,4.8,0.,4.8,0.,4.8,0.,4.8
1979-07-20 03:15:54.100 ,4,0,1.,4.8,0.,4.8,0.,4.8,0.,4.8
1979-07-20 03:15:58.900 ,5,0,0.,4.8,0.,4.8,0.,4.8,0.,4.8
1979-07-20 03:16:03.700 ,5,0,0.,4.8,0.,4.8,0.,4.8,0.,4.8
1979-07-20 03:16:08.500 ,5,0,0.,4.8,0.,4.8,0.,4.8,0.,4.8
1979-07-20 03:16:13.300 ,5,0,0.,4.8,0.,4.8,1.,4.8,0.,4.8
1979-07-20 03:16:18.100 ,5,0,0.,4.8,0.,4.8,0.,4.8,0.,4.8
1979-07-20 03:16:22.900 ,5,0,1.,4.8,1.,4.8,0.,4.8,0.,4.8
1979-07-20 03:16:27.700 ,5,0,0.,4.8,0.,4.8,0.,4.8,0.,4.8
1979-07-20 03:16:32.500 ,5,0,1.,4.8,0.,4.8,1.,4.8,0.,4.8
1979-07-20 03:16:37.300 ,5,0,1.,4.8,0.,4.8,1.,4.8,0.,4.8
1979-07-20 03:16:42.100 ,5,0,1.,4.8,0.,4.8,0.,4.8,0.,4.8
1979-07-20 03:16:46.900 ,6,0,0.,4.8,0.,4.8,0.,4.8,0.,4.8
1979-07-20 03:16:51.700 ,6,0,0.,4.8,0.,4.8,0.,4.8,0.,4.8
1979-07-20 03:16:56.500 ,6,0,0.,4.8,0.,4.8,0.,4.8,0.,4.8
1979-07-20 03:17:01.300 ,6,0,3.,4.8,0.,4.8,0.,4.8,0.,4.8
1979-07-20 03:17:06.100 ,6,0,0.,4.8,0.,4.8,0.,4.8,0.,4.8
1979-07-20 03:17:10.900 ,6,0,0.,4.8,0.,4.8,0.,4.8,0.,4.8
1979-07-20 03:17:15.700 ,6,0,0.,4.8,0.,4.8,0.,4.8,0.,4.8
1979-07-20 03:17:20.500 ,6,0,0.,4.8,1.,4.8,0.,4.8,0.,4.8
1979-07-20 03:17:25.300 ,6,0,0.,4.8,0.,4.8,1.,4.8,0.,4.8
1979-07-20 03:17:30.100 ,6,0,0.,4.8,0.,4.8,0.,4.8,0.,4.8
1979-07-20 03:17:34.900 ,7,0,0.,4.8,0.,4.8,0.,4.8,0.,4.8
1979-07-20 03:17:39.700 ,7,0,0.,4.8,0.,4.8,0.,4.8,0.,4.8
1979-07-20 03:17:44.500 ,7,0,0.,4.8,0.,4.8,0.,4.8,0.,4.8
1979-07-20 03:17:49.300 ,7,0,1.,4.8,1.,4.8,0.,4.8,0.,4.8
1979-07-20 03:17:54.100 ,7,0,1.,4.8,0.,4.8,0.,4.8,0.,4.8
1979-07-20 03:17:58.900 ,7,0,1.,4.8,0.,4.8,0.,4.8,0.,4.8
1979-07-20 03:18:03.700 ,7,0,1.,4.8,0.,4.8,0.,4.8,0.,4.8
1979-07-20 03:18:08.500 ,7,0,0.,4.8,0.,4.8,0.,4.8,0.,4.8
1979-07-20 03:18:13.300 ,7,0,1.,4.8,0.,4.8,0.,4.8,0.,4.8
1979-07-20 03:18:18.100 ,7,0,0.,4.8,0.,4.8,0.,4.8,0.,4.8
1979-07-20 03:18:22.900 ,7,0,2.,4.8,0.,4.8,0.,4.8,0.,4.8
1979-07-20 03:18:27.700 ,7,0,0.,4.8,0.,4.8,0.,4.8,0.,4.8
1979-07-20 03:18:32.500 ,7,0,1.,4.8,0.,4.8,0.,4.8,0.,4.8
1979-07-20 03:18:37.300 ,7,0,0.,4.8,0.,4.8,0.,4.8,0.,4.8
1979-07-20 03:18:42.100 ,7,0,3.,4.8,0.,4.8,0.,4.8,0.,4.8
1979-07-20 03:18:46.900 ,7,0,0.,4.8,0.,4.8,0.,4.8,0.,4.8
1979-07-20 03:18:51.700 ,7,0,1.,4.8,0.,4.8,0.,4.8,0.,4.8
1979-07-20 03:18:56.500 ,7,0,0.,4.8,1.,4.8,0.,4.8,0.,4.8
1979-07-20 03:19:01.300 ,7,0,0.,4.8,0.,4.8,0.,4.8,0.,4.8
1979-07-20 03:19:06.100 ,7,0,0.,4.8,0.,4.8,0.,4.8,0.,4.8
1979-07-20 03:19:10.900 ,0,0,0.,4.8,0.,4.8,0.,4.8,0.,4.8
1979-07-20 03:19:15.700 ,0,0,1.,4.8,0.,4.8,0.,4.8,0.,4.8
1979-07-20 03:19:20.500 ,0,0,0.,4.8,0.,4.8,0.,4.8,0.,4.8
1979-07-20 03:19:25.300 ,0,0,0.,4.8,0.,4.8,0.,4.8,0.,4.8
1979-07-20 03:19:30.100 ,0,0,0.,4.8,0.,4.8,0.,4.8,0.,4.8
1979-07-20 03:19:34.900 ,0,0,2.,4.8,0.,4.8,0.,4.8,0.,4.8
1979-07-20 03:19:39.700 ,0,0,0.,4.8,0.,4.8,0.,4.8,0.,4.8
1979-07-20 03:19:44.500 ,0,0,0.,4.8,0.,4.8,1.,4.8,0.,4.8
1979-07-20 03:19:49.300 ,0,0,0.,4.8,0.,4.8,0.,4.8,1.,4.8
1979-07-20 03:19:54.100 ,0,0,0.,4.8,0.,4.8,0.,4.8,0.,4.8
1979-07-20 03:19:58.900 ,5,0,1.,4.8,0.,4.8,0.,4.8,0.,4.8
1979-07-20 03:20:03.700 ,5,0,0.,4.8,0.,4.8,0.,4.8,0.,4.8
1979-07-20 03:20:08.500 ,5,0,0.,4.8,0.,4.8,0.,4.8,0.,4.8
1979-07-20 03:20:13.300 ,5,0,0.,4.8,0.,4.8,0.,4.8,0.,4.8
1979-07-20 03:20:18.100 ,5,0,0.,4.8,0.,4.8,0.,4.8,0.,4.8
1979-07-20 03:20:22.900 ,5,0,0.,4.8,0.,4.8,0.,4.8,0.,4.8
1979-07-20 03:20:27.700 ,5,0,1.,4.8,0.,4.8,0.,4.8,0.,4.8
1979-07-20 03:20:32.500 ,5,0,0.,4.8,0.,4.8,0.,4.8,0.,4.8
1979-07-20 03:20:37.300 ,5,0,1.,4.8,0.,4.8,0.,4.8,0.,4.8
1979-07-20 03:20:42.100 ,5,0,0.,4.8,0.,4.8,0.,4.8,0.,4.8
1979-07-20 03:20:46.900 ,4,0,0.,4.8,0.,4.8,0.,4.8,0.,4.8
1979-07-20 03:20:51.700 ,4,0,0.,4.8,0.,4.8,0.,4.8,0.,4.8
1979-07-20 03:20:56.500 ,4,0,1.,4.8,0.,4.8,0.,4.8,0.,4.8
1979-07-20 03:21:01.300 ,4,0,0.,4.8,0.,4.8,0.,4.8,0.,4.8
1979-07-20 03:21:06.100 ,4,0,0.,4.8,0.,4.8,0.,4.8,0.,4.8
1979-07-20 03:21:10.900 ,4,0,2.,4.8,0.,4.8,0.,4.8,0.,4.8
1979-07-20 03:21:15.700 ,4,0,0.,4.8,0.,4.8,0.,4.8,0.,4.8
1979-07-20 03:21:20.500 ,4,0,0.,4.8,0.,4.8,0.,4.8,0.,4.8
1979-07-20 03:21:25.300 ,4,0,1.,4.8,0.,4.8,1.,4.8,0.,4.8
1979-07-20 03:21:30.100 ,4,0,0.,4.8,0.,4.8,0.,4.8,0.,4.8
1979-07-20 03:21:34.900 ,3,0,0.,4.8,1.,4.8,0.,4.8,0.,4.8
1979-07-20 03:21:39.700 ,3,0,1.,4.8,0.,4.8,0.,4.8,0.,4.8
1979-07-20 03:21:44.500 ,3,0,2.,4.8,0.,4.8,0.,4.8,0.,4.8
1979-07-20 03:21:49.300 ,3,0,0.,4.8,0.,4.8,1.,4.8,0.,4.8
1979-07-20 03:21:54.100 ,3,0,0.,4.8,0.,4.8,0.,4.8,0.,4.8
1979-07-20 03:21:58.900 ,3,0,1.,4.8,0.,4.8,0.,4.8,0.,4.8
1979-07-20 03:22:03.700 ,3,0,0.,4.8,0.,4.8,0.,4.8,0.,4.8
1979-07-20 03:22:08.500 ,3,0,0.,4.8,0.,4.8,1.,4.8,0.,4.8
1979-07-20 03:22:13.300 ,3,0,0.,4.8,0.,4.8,0.,4.8,0.,4.8
1979-07-20 03:22:18.100 ,3,0,0.,4.8,0.,4.8,0.,4.8,0.,4.8
1979-07-20 03:22:22.900 ,2,0,0.,4.8,0.,4.8,0.,4.8,0.,4.8
1979-07-20 03:22:27.700 ,2,0,1.,4.8,0.,4.8,0.,4.8,0.,4.8
1979-07-20 03:22:32.500 ,2,0,0.,4.8,0.,4.8,0.,4.8,0.,4.8
1979-07-20 03:22:37.300 ,2,0,0.,4.8,0.,4.8,1.,4.8,0.,4.8
1979-07-20 03:22:42.100 ,2,0,0.,4.8,0.,4.8,0.,4.8,0.,4.8
1979-07-20 03:22:46.900 ,2,0,0.,4.8,0.,4.8,0.,4.8,0.,4.8
1979-07-20 03:22:51.700 ,2,0,0.,4.8,0.,4.8,0.,4.8,1.,4.8
1979-07-20 03:22:56.500 ,2,0,1.,4.8,0.,4.8,0.,4.8,0.,4.8
1979-07-20 03:23:01.300 ,2,0,0.,4.8,0.,4.8,0.,4.8,0.,4.8
1979-07-20 03:23:06.100 ,2,0,0.,4.8,0.,4.8,0.,4.8,0.,4.8
1979-07-20 03:23:10.900 ,1,0,0.,4.8,0.,4.8,0.,4.8,0.,4.8
1979-07-20 03:23:15.700 ,1,0,3.,4.8,1.,4.8,0.,4.8,0.,4.8
1979-07-20 03:23:20.500 ,1,0,0.,4.8,0.,4.8,0.,4.8,0.,4.8
1979-07-20 03:23:25.300 ,1,0,0.,4.8,0.,4.8,0.,4.8,0.,4.8
1979-07-20 03:23:30.100 ,1,0,0.,4.8,0.,4.8,0.,4.8,0.,4.8
1979-07-20 03:23:34.900 ,1,0,1.,4.8,0.,4.8,1.,4.8,0.,4.8
1979-07-20 03:23:39.700 ,1,0,0.,4.8,0.,4.8,0.,4.8,0.,4.8
1979-07-20 03:23:44.500 ,1,0,0.,4.8,0.,4.8,0.,4.8,0.,4.8
1979-07-20 03:23:49.300 ,1,0,0.,4.8,0.,4.8,0.,4.8,0.,4.8
1979-07-20 03:23:54.100 ,1,0,0.,4.8,0.,4.8,0.,4.8,0.,4.8
1979-07-20 03:23:58.900 ,0,0,0.,4.8,0.,4.8,0.,4.8,0.,4.8
1979-07-20 03:24:03.700 ,0,0,1.,4.8,0.,4.8,0.,4.8,0.,4.8
1979-07-20 03:24:08.500 ,0,0,0.,4.8,0.,4.8,0.,4.8,0.,4.8
1979-07-20 03:24:13.300 ,0,0,0.,4.8,0.,4.8,0.,4.8,0.,4.8
1979-07-20 03:24:18.100 ,0,0,1.,4.8,0.,4.8,0.,4.8,0.,4.8
1979-07-20 03:24:22.900 ,0,0,1.,4.8,0.,4.8,0.,4.8,0.,4.8
1979-07-20 03:24:27.700 ,0,0,1.,4.8,0.,4.8,0.,4.8,0.,4.8
1979-07-20 03:24:32.500 ,0,0,0.,4.8,0.,4.8,0.,4.8,0.,4.8
1979-07-20 03:24:37.300 ,0,0,0.,4.8,0.,4.8,0.,4.8,0.,4.8
1979-07-20 03:24:42.100 ,0,0,0.,4.8,0.,4.8,0.,4.8,0.,4.8
1979-07-20 03:24:46.900 ,0,0,0.,4.8,0.,4.8,0.,4.8,0.,4.8
1979-07-20 03:24:51.700 ,0,0,0.,4.8,0.,4.8,0.,4.8,0.,4.8
1979-07-20 03:24:56.500 ,0,0,0.,4.8,0.,4.8,1.,4.8,1.,4.8
1979-07-20 03:25:01.300 ,0,0,0.,4.8,0.,4.8,0.,4.8,0.,4.8
1979-07-20 03:25:06.100 ,0,0,1.,4.8,0.,4.8,0.,4.8,0.,4.8
1979-07-20 03:25:10.900 ,0,0,0.,4.8,0.,4.8,0.,4.8,0.,4.8
1979-07-20 03:25:15.700 ,0,0,1.,4.8,0.,4.8,0.,4.8,0.,4.8
1979-07-20 03:25:20.500 ,0,0,0.,4.8,0.,4.8,0.,4.8,0.,4.8
1979-07-20 03:25:25.300 ,0,0,0.,4.8,0.,4.8,1.,4.8,0.,4.8
1979-07-20 03:25:30.100 ,0,0,1.,4.8,0.,4.8,0.,4.8,0.,4.8
1979-07-20 03:25:34.900 ,1,0,0.,4.8,0.,4.8,0.,4.8,0.,4.8
1979-07-20 03:25:39.700 ,1,0,0.,4.8,0.,4.8,1.,4.8,0.,4.8
1979-07-20 03:25:44.500 ,1,0,0.,4.8,0.,4.8,1.,4.8,0.,4.8
1979-07-20 03:25:49.300 ,1,0,0.,4.8,0.,4.8,0.,4.8,0.,4.8
1979-07-20 03:25:54.100 ,1,0,0.,4.8,0.,4.8,0.,4.8,0.,4.8
1979-07-20 03:25:58.900 ,1,0,1.,4.8,0.,4.8,0.,4.8,0.,4.8
1979-07-20 03:26:03.700 ,1,0,0.,4.8,0.,4.8,0.,4.8,0.,4.8
1979-07-20 03:26:08.500 ,1,0,0.,4.8,0.,4.8,0.,4.8,0.,4.8
1979-07-20 03:26:13.300 ,1,0,0.,4.8,0.,4.8,0.,4.8,0.,4.8
1979-07-20 03:26:18.100 ,1,0,0.,4.8,0.,4.8,0.,4.8,0.,4.8
1979-07-20 03:26:22.900 ,2,0,1.,4.8,0.,4.8,0.,4.8,0.,4.8
1979-07-20 03:26:27.700 ,2,0,1.,4.8,0.,4.8,0.,4.8,0.,4.8
1979-07-20 03:26:32.500 ,2,0,1.,4.8,0.,4.8,0.,4.8,0.,4.8
1979-07-20 03:26:37.300 ,2,0,0.,4.8,0.,4.8,0.,4.8,0.,4.8
1979-07-20 03:26:42.100 ,2,0,0.,4.8,0.,4.8,0.,4.8,0.,4.8
1979-07-20 03:26:46.900 ,2,0,1.,4.8,0.,4.8,0.,4.8,0.,4.8
1979-07-20 03:26:51.700 ,2,0,1.,4.8,0.,4.8,0.,4.8,0.,4.8
1979-07-20 03:26:56.500 ,2,0,1.,4.8,0.,4.8,0.,4.8,0.,4.8
1979-07-20 03:27:01.300 ,2,0,0.,4.8,0.,4.8,0.,4.8,0.,4.8
1979-07-20 03:27:06.100 ,2,0,0.,4.8,0.,4.8,0.,4.8,0.,4.8
1979-07-20 03:27:10.900 ,3,0,1.,4.8,0.,4.8,0.,4.8,0.,4.8
1979-07-20 03:27:15.700 ,3,0,0.,4.8,0.,4.8,0.,4.8,0.,4.8
1979-07-20 03:27:20.500 ,3,0,0.,4.8,0.,4.8,0.,4.8,0.,4.8
1979-07-20 03:27:25.300 ,3,0,0.,4.8,0.,4.8,0.,4.8,0.,4.8
1979-07-20 03:27:30.100 ,3,0,0.,4.8,0.,4.8,0.,4.8,0.,4.8
1979-07-20 03:27:34.900 ,3,0,1.,4.8,0.,4.8,0.,4.8,0.,4.8
1979-07-20 03:27:39.700 ,3,0,1.,4.8,0.,4.8,0.,4.8,0.,4.8
1979-07-20 03:27:44.500 ,3,0,0.,4.8,0.,4.8,0.,4.8,0.,4.8
1979-07-20 03:27:49.300 ,3,0,0.,4.8,0.,4.8,1.,4.8,0.,4.8
1979-07-20 03:27:54.100 ,3,0,1.,4.8,0.,4.8,0.,4.8,0.,4.8
1979-07-20 03:27:58.900 ,4,0,0.,4.8,0.,4.8,0.,4.8,0.,4.8
1979-07-20 03:28:03.700 ,4,0,0.,4.8,0.,4.8,0.,4.8,0.,4.8
1979-07-20 03:28:08.500 ,4,0,1.,4.8,0.,4.8,0.,4.8,0.,4.8
1979-07-20 03:28:13.300 ,4,0,1.,4.8,0.,4.8,0.,4.8,0.,4.8
1979-07-20 03:28:18.100 ,4,0,0.,4.8,0.,4.8,0.,4.8,0.,4.8
1979-07-20 03:28:22.900 ,4,0,1.,4.8,0.,4.8,0.,4.8,0.,4.8
1979-07-20 03:28:27.700 ,4,0,0.,4.8,0.,4.8,0.,4.8,0.,4.8
1979-07-20 03:28:32.500 ,4,0,0.,4.8,0.,4.8,0.,4.8,0.,4.8
1979-07-20 03:28:37.300 ,4,0,1.,4.8,0.,4.8,0.,4.8,0.,4.8
1979-07-20 03:28:42.100 ,4,0,0.,4.8,0.,4.8,0.,4.8,0.,4.8
1979-07-20 03:28:46.900 ,5,0,0.,4.8,0.,4.8,1.,4.8,0.,4.8
1979-07-20 03:28:51.700 ,5,0,1.,4.8,0.,4.8,0.,4.8,0.,4.8
1979-07-20 03:28:56.500 ,5,0,0.,4.8,0.,4.8,0.,4.8,0.,4.8
1979-07-20 03:29:01.300 ,5,0,0.,4.8,0.,4.8,0.,4.8,0.,4.8
1979-07-20 03:29:06.100 ,5,0,1.,4.8,0.,4.8,0.,4.8,0.,4.8
1979-07-20 03:29:10.900 ,5,0,0.,4.8,0.,4.8,0.,4.8,0.,4.8
1979-07-20 03:29:15.700 ,5,0,0.,4.8,0.,4.8,0.,4.8,0.,4.8
1979-07-20 03:29:20.500 ,5,0,1.,4.8,0.,4.8,0.,4.8,0.,4.8
1979-07-20 03:29:25.300 ,5,0,0.,4.8,0.,4.8,0.,4.8,0.,4.8
1979-07-20 03:29:30.100 ,5,0,1.,4.8,0.,4.8,0.,4.8,0.,4.8
1979-07-20 03:29:34.900 ,6,0,0.,4.8,0.,4.8,0.,4.8,0.,4.8
1979-07-20 03:29:39.700 ,6,0,0.,4.8,0.,4.8,0.,4.8,0.,4.8
1979-07-20 03:29:44.500 ,6,0,2.,4.8,0.,4.8,0.,4.8,0.,4.8
1979-07-20 03:29:49.300 ,6,0,0.,4.8,0.,4.8,0.,4.8,0.,4.8
1979-07-20 03:29:54.100 ,6,0,0.,4.8,0.,4.8,0.,4.8,0.,4.8
1979-07-20 03:29:58.900 ,6,0,0.,4.8,0.,4.8,0.,4.8,0.,4.8
1979-07-20 03:30:03.700 ,6,0,0.,4.8,0.,4.8,1.,4.8,0.,4.8
1979-07-20 03:30:08.500 ,6,0,0.,4.8,0.,4.8,1.,4.8,0.,4.8
1979-07-20 03:30:13.300 ,6,0,1.,4.8,0.,4.8,0.,4.8,0.,4.8
1979-07-20 03:30:18.100 ,6,0,0.,4.8,0.,4.8,0.,4.8,0.,4.8
1979-07-20 03:30:22.900 ,7,0,0.,4.8,0.,4.8,0.,4.8,0.,4.8
1979-07-20 03:30:27.700 ,7,0,0.,4.8,0.,4.8,0.,4.8,0.,4.8
1979-07-20 03:30:32.500 ,7,0,1.,4.8,0.,4.8,0.,4.8,0.,4.8
1979-07-20 03:30:37.300 ,7,0,0.,4.8,0.,4.8,0.,4.8,0.,4.8
1979-07-20 03:30:42.100 ,7,0,0.,4.8,0.,4.8,0.,4.8,0.,4.8
1979-07-20 03:30:46.900 ,7,0,2.,4.8,0.,4.8,0.,4.8,0.,4.8
1979-07-20 03:30:51.700 ,7,0,0.,4.8,0.,4.8,0.,4.8,0.,4.8
1979-07-20 03:30:56.500 ,7,0,0.,4.8,0.,4.8,0.,4.8,0.,4.8
1979-07-20 03:31:01.300 ,7,0,0.,4.8,0.,4.8,0.,4.8,0.,4.8
1979-07-20 03:31:06.100 ,7,0,1.,4.8,0.,4.8,0.,4.8,0.,4.8
1979-07-20 03:31:10.900 ,3,1,0.,4.8,0.,4.8,0.,4.8,0.,4.8
1979-07-20 03:31:15.700 ,3,1,1.,4.8,0.,4.8,1.,4.8,0.,4.8
1979-07-20 03:31:20.500 ,3,1,0.,4.8,0.,4.8,0.,4.8,0.,4.8
1979-07-20 03:31:25.300 ,3,1,1.,4.8,0.,4.8,0.,4.8,0.,4.8
1979-07-20 03:31:30.100 ,3,1,0.,4.8,0.,4.8,0.,4.8,0.,4.8
1979-07-20 03:31:34.900 ,0,1,0.,4.8,0.,4.8,0.,4.8,0.,4.8
1979-07-20 03:31:39.700 ,0,1,0.,4.8,0.,4.8,0.,4.8,0.,4.8
1979-07-20 03:31:44.500 ,0,1,0.,4.8,0.,4.8,0.,4.8,0.,4.8
1979-07-20 03:31:49.300 ,0,1,1.,4.8,0.,4.8,0.,4.8,0.,4.8
1979-07-20 03:31:54.100 ,0,1,2.,4.8,0.,4.8,0.,4.8,0.,4.8
1979-07-20 03:31:58.900 ,4,1,0.,4.8,0.,4.8,0.,4.8,0.,4.8
1979-07-20 03:32:03.700 ,4,1,1.,4.8,0.,4.8,0.,4.8,0.,4.8
1979-07-20 03:32:08.500 ,4,1,0.,4.8,0.,4.8,0.,4.8,0.,4.8
1979-07-20 03:32:13.300 ,4,1,0.,4.8,0.,4.8,0.,4.8,0.,4.8
1979-07-20 03:32:18.100 ,4,1,0.,4.8,0.,4.8,0.,4.8,0.,4.8
1979-07-20 03:32:22.900 ,7,1,0.,4.8,0.,4.8,1.,4.8,0.,4.8
1979-07-20 03:32:27.700 ,7,1,0.,4.8,0.,4.8,0.,4.8,0.,4.8
1979-07-20 03:32:32.500 ,7,1,0.,4.8,0.,4.8,0.,4.8,0.,4.8
1979-07-20 03:32:37.300 ,7,1,0.,4.8,0.,4.8,0.,4.8,0.,4.8
1979-07-20 03:32:42.100 ,7,1,1.,4.8,0.,4.8,1.,4.8,0.,4.8
1979-07-20 03:32:46.900 ,3,1,1.,4.8,0.,4.8,0.,4.8,0.,4.8
1979-07-20 03:32:51.700 ,3,1,0.,4.8,0.,4.8,0.,4.8,0.,4.8
1979-07-20 03:32:56.500 ,3,1,0.,4.8,0.,4.8,0.,4.8,1.,4.8
1979-07-20 03:33:01.300 ,3,1,0.,4.8,0.,4.8,0.,4.8,0.,4.8
1979-07-20 03:33:06.100 ,3,1,0.,4.8,0.,4.8,0.,4.8,0.,4.8
1979-07-20 03:33:10.900 ,0,1,0.,4.8,0.,4.8,1.,4.8,1.,4.8
1979-07-20 03:33:15.700 ,0,1,0.,4.8,0.,4.8,0.,4.8,0.,4.8